Chattahoochee River Whitewater Weather Center

Moon Phase Calendar



Online Cameras

 


      

Current Conditions in Phenix City
4/11/2021 6:25:49 PM

78°F
Feels Like 76
Clear
Humidity
24%
Pressure
29.65"
Wind
10.4 mph (NW)
Dew Point
38°F
UV Index
1/10 (Low)
Visibility
6 mi

Hourly Forecast

Date & Time Sun, Apr 11
6:00 PM
Sun, Apr 11
7:00 PM
Sun, Apr 11
8:00 PM
Sun, Apr 11
9:00 PM
Sun, Apr 11
10:00 PM
Sun, Apr 11
11:00 PM
Mon, Apr 12
12:00 AM
Mon, Apr 12
1:00 AM
Mon, Apr 12
2:00 AM
Mon, Apr 12
3:00 AM
Mon, Apr 12
4:00 AM
Mon, Apr 12
5:00 AM
Mon, Apr 12
6:00 AM
Mon, Apr 12
7:00 AM
Mon, Apr 12
8:00 AM
Mon, Apr 12
9:00 AM
Mon, Apr 12
10:00 AM
Mon, Apr 12
11:00 AM
Mon, Apr 12
12:00 PM
Mon, Apr 12
1:00 PM
Mon, Apr 12
2:00 PM
Mon, Apr 12
3:00 PM
Mon, Apr 12
4:00 PM
Mon, Apr 12
5:00 PM
Mon, Apr 12
6:00 PM
Mon, Apr 12
7:00 PM
Mon, Apr 12
8:00 PM
Mon, Apr 12
9:00 PM
Mon, Apr 12
10:00 PM
Mon, Apr 12
11:00 PM
Tue, Apr 13
12:00 AM
Tue, Apr 13
1:00 AM
Tue, Apr 13
2:00 AM
Tue, Apr 13
3:00 AM
Tue, Apr 13
4:00 AM
Tue, Apr 13
5:00 AM
Tue, Apr 13
6:00 AM
Tue, Apr 13
7:00 AM
Tue, Apr 13
8:00 AM
Tue, Apr 13
9:00 AM
Tue, Apr 13
10:00 AM
Tue, Apr 13
11:00 AM
Tue, Apr 13
12:00 PM
Tue, Apr 13
1:00 PM
Tue, Apr 13
2:00 PM
Tue, Apr 13
3:00 PM
Tue, Apr 13
4:00 PM
Tue, Apr 13
5:00 PM
Condition
Clear

Clear

Clear

Clear

Clear

Clear

Clear

Clear

Clear

Clear

Clear

Clear

Clear

Clear

Clear

Clear

Clear

Clear

Clear

Clear

Clear

Clouds

Clear

Clear

Clear

Clear

Clouds

Clear

Clear

Clouds

Clouds

Clouds

Clouds

Clouds

Clouds

Clouds

Clouds

Clouds

Clouds

Clouds

Clouds

Clouds

Clouds

Clouds

Clouds

Clouds

Clouds

Clouds
Temperature 78°F74°F68°F63°F61°F59°F58°F57°F56°F55°F55°F54°F53°F53°F55°F61°F66°F71°F75°F78°F80°F81°F82°F81°F80°F76°F70°F66°F64°F63°F62°F62°F61°F61°F59°F59°F58°F58°F59°F65°F69°F74°F78°F80°F81°F82°F83°F83°F
Feels Like 76°F73°F67°F62°F60°F59°F57°F56°F55°F54°F53°F53°F52°F52°F54°F60°F65°F70°F74°F77°F80°F80°F80°F80°F80°F76°F69°F66°F64°F63°F62°F61°F61°F60°F58°F58°F57°F57°F58°F64°F69°F73°F77°F80°F80°F81°F81°F81°F
Cloudiness 1%1%0%0%0%0%0%0%0%0%0%0%0%0%0%0%0%0%0%0%0%11%5%4%4%4%11%9%7%25%44%47%56%100%78%62%66%69%60%11%54%69%77%82%85%99%93%93%
Visibility 6 mi6 mi6 mi6 mi6 mi6 mi6 mi6 mi6 mi6 mi6 mi6 mi6 mi6 mi6 mi6 mi6 mi6 mi6 mi6 mi6 mi6 mi6 mi6 mi6 mi6 mi6 mi6 mi6 mi6 mi6 mi6 mi6 mi6 mi6 mi6 mi6 mi6 mi6 mi6 mi6 mi6 mi6 mi6 mi6 mi6 mi6 mi6 mi
Precipitation 0%0%0%0%0%0%0%0%0%0%0%0%0%0%0%0%0%0%0%0%0%0%0%0%0%0%0%0%0%0%0%0%0%0%0%0%0%0%0%0%0%0%0%0%0%0%0%0%
Humidity 24%36%52%60%67%73%74%73%74%75%76%77%78%78%74%62%51%43%37%34%32%31%30%31%36%48%58%64%68%71%73%73%72%71%71%71%71%71%71%62%56%49%43%39%37%35%34%33%
Dew Point 38°F46°F49°F49°F50°F50°F50°F48°F48°F47°F47°F47°F46°F46°F47°F47°F48°F48°F47°F48°F48°F48°F47°F48°F51°F55°F54°F54°F53°F54°F53°F53°F52°F51°F50°F49°F49°F48°F50°F51°F53°F54°F53°F53°F52°F52°F51°F51°F
Pressure 29.65"29.65"29.71"29.74"29.77"29.77"29.77"29.8"29.8"29.8"29.83"29.83"29.83"29.85"29.88"29.88"29.88"29.91"29.88"29.88"29.88"29.88"29.85"29.85"29.85"29.88"29.91"29.94"29.94"29.97"29.97"29.97"29.97"29.97"29.97"29.97"29.97"30"30.03"30.03"30.06"30.06"30.06"30.03"30.03"30"30"29.97"
Wind Speed 8.8 mph7.7 mph6.6 mph6.7 mph6.6 mph5.9 mph5.1 mph4.6 mph4.4 mph4 mph3.9 mph4.3 mph4.6 mph3.8 mph3.5 mph3.8 mph4.6 mph5.1 mph6.2 mph8 mph8.4 mph8.7 mph8.4 mph8.4 mph7.4 mph5.6 mph4.7 mph4.8 mph4.5 mph4.3 mph4.1 mph3.4 mph3 mph3 mph3 mph3.1 mph2.5 mph3.2 mph3.3 mph2.5 mph2.6 mph2.2 mph3 mph4 mph4.2 mph3.9 mph5.3 mph5.4 mph
Wind
Direction
265°
W
265°
W
268°
W
276°
W
280°
W
295°
WNW
308°
NW
311°
NW
313°
NW
324°
NW
321°
NW
318°
NW
332°
NNW
344°
NNW
319°
NW
315°
NW
293°
WNW
283°
WNW
282°
WNW
282°
WNW
291°
WNW
294°
WNW
293°
WNW
295°
WNW
288°
WNW
277°
W
270°
W
275°
W
278°
W
285°
WNW
296°
WNW
309°
NW
321°
NW
319°
NW
357°
N
334°
NNW
335°
NNW

N
36°
NE
23°
NNE
18°
NNE
111°
ESE
156°
SSE
197°
SSW
207°
SSW
206°
SSW
216°
SW
215°
SW

Daily Forecast

Date High Low Precip. Humidity
Today
Apr 11

Rain
78 °F
59 °F
20%
39%
Monday
Apr 12

Clear
82 °F
53 °F
0%
34%
Tuesday
Apr 13

Clouds
83 °F
58 °F
0%
37%
Wednesday
Apr 14

Rain
72 °F
59 °F
79%
63%
Thursday
Apr 15

Rain
73 °F
55 °F
78%
39%
Friday
Apr 16

Clouds
67 °F
51 °F
14%
49%
Saturday
Apr 17

Clouds
69 °F
52 °F
0%
40%
Sunday
Apr 18

Clouds
71 °F
51 °F
0%
39%
Monday
Apr 19

Clear
74 °F
51 °F
0%
31%
Tuesday
Apr 20

Clouds
76 °F
52 °F
0%
32%
Wednesday
Apr 21

Clear
77 °F
55 °F
0%
34%
Thursday
Apr 22

Clouds
74 °F
52 °F
0%
22%
Friday
Apr 23

Clouds
78 °F
51 °F
0%
30%
Saturday
Apr 24

Rain
82 °F
58 °F
79%
41%
Sunday
Apr 25

Rain
73 °F
62 °F
100%
89%
Monday
Apr 26

Clear
82 °F
57 °F
0%
37%

Temperature 8-14 Day Outlook



Precipitation 8-14 Day Outlook




Quick Links
Chattahoochee River Whitewater News
Chattahoochee River Whitewater Photos
Chattahoochee River Whitewater Videos




About Us
Contact Us
Site Map
Search Site
Advertise With Us
   
www.ChattahoocheeRiverWhitewater.com
THE CHATTAHOOCHEE RIVER WHITEWATER WEBSITE

Copyright 2021, Discover Rivers
Privacy    |    Legal